Find Nimiq 4

NORAD ID: 33373 Int'l Des: 2008-044 Owner: TCANL Country: CA operational
HEOCIRCULARGSOGEO

リアルタイム位置

3D地球を読み込み中...

Nimiq 4について

説明を読み込み中...

次回通過

Passes for default location (London). Set your location on the main map for personalized predictions.

高度履歴

Loading altitude history...

軌道要素

1 33373U 08044A 26106.89489174 -.00000213 00000-0 00000-0 0 9997
2 33373 0.0230 263.1121 0002070 132.6305 49.4264 1.00269104 64362
Epoch: Apr 16, 2026 • Age: 11 hours

現在のステータス

高度 35794.6 km
速度 3.07 km/s
衛星直下点 -0.00°S, 82.05°W
打ち上げ日 Sep 19, 2008
運用期間 17.5 years
タイプ other

技術仕様

分類 Payload
質量 4850.00 kg
乾燥質量 2000.00 kg
総質量 4850.00 kg
長さ 5.80 m
直径 2.50 m
スパン 39.00 m
形状 Box + 2 Pan
製造者 ASTT
バスタイプ Eurostar 3000
フェーズステータス In Orbit
所有者/国 TCANL/CA

Most Searched